sat.trackr.live / text

‹ back to catalog

STARLINK-30972

NORAD 58721 · 2024-002S

PAYLOAD ACTIVE UNKNOWN

§ Identity

Operator
Country
US
Launch date
2024-01-03
Launch site
AFWTR
Launch vehicle
Mass (kg)
RCS (m²)

Purposes: comms

External: N2YO · Heavens-Above · Gunter

§ Orbital elements

Epoch: 2026-09-20T13:34:00.594624Z

Period
93.85 min
Inclination
53.1591°
Eccentricity
0.0000739
Mean motion
15.34384573 rev/d
Perigee alt
462.2 km
Apogee alt
463.3 km
Semi-major
6,840.9 km
B*
-8.3699e-5
RAAN
43.2016°
Arg perigee
48.3835°
Mean anomaly
311.7230°
Rev number
15,187

§ Raw data

STARLINK-309721 58721U 24002S   26263.56528466 -.00003201  00000+0 -83699-4 0  99982 58721  53.1591  43.2016 0000739  48.3835 311.7230 15.34384573151877

JSON: /api/v1/satellites/58721 · /tle

For live sub-satellite position, see the globe view (requires WebGL).

§ Visibility from observer

Set your observer location to see the next 7 days of passes ≥ 10°. The values pass through the URL so the page stays shareable.

No JS? Fill the form by hand. The geolocation button needs JavaScript.